Regional Weather Roundup
Issued by NWS San Angelo, TX

Home | Current Version | Previous Version | Text Only | Print | Product List | Glossary On
Versions: 1 2 3 4 5 6 7 8 9 10 11 12 13 14 15 16 17 18 19 20 21 22 23 24 25 26 27 28 29 30 31 32 33 34 35 36 37 38 39 40 41 42 43 44 45 46 47 48 49 50
000
ASUS44 KSJT 210510
RWRSJT
WEST CENTRAL TEXAS REGIONAL WEATHER ROUNDUP
NATIONAL WEATHER SERVICE SAN ANGELO TX
1100 PM CST MON FEB 20 2017

NOTE: "FAIR" INDICATES FEW OR NO CLOUDS BELOW 12,000 FEET WITH NO
SIGNIFICANT WEATHER AND/OR OBSTRUCTIONS TO VISIBILITY.

TXZ049-054-064>066-071>073-076>078-098-099-113-114-127-128-139-140-
154-155-168>170-210600
...LOCATIONS ACROSS WEST CENTRAL TEXAS...

CITY           SKY/WX    TMP DP  RH WIND       PRES   REMARKS
SAN ANGELO     CLEAR     52  37  56 W10       30.04R
ABILENE        CLEAR     52  38  58 W6        30.01R
DYESS AFB      CLEAR     52  38  58 NW8       30.00R
JUNCTION       CLEAR     56  40  55 W6        30.03R
SWEETWATER     CLEAR     56  24  29 W7        30.06S
BROWNWOOD      PTCLDY    48  46  93 CALM      29.98R
COLEMAN        CLEAR     56  38  51 W10       29.99S
SONORA         CLEAR     57  27  30 NW3       30.11S
OZONA          NOT AVBL
BRADY          NOT AVBL
$$

TEXAS PANHANDLE/OKLAHOMA PANHANDLE

CITY           SKY/WX    TMP DP  RH WIND       PRES   REMARKS
AMARILLO       CLEAR     43  19  38 W9        30.10R WCI  38
BORGER         CLEAR     49  14  24 W7        30.08R
CANADIAN       CLEAR     48  20  33 CALM      30.05R
DALHART        CLOUDY    35  16  45 W7        30.12R WCI  29
DUMAS          CLOUDY    39  12  32 NW3       30.10S
GUYMON         NOT AVBL
HEREFORD       CLOUDY    35  26  70 W5        30.13S WCI  30
PAMPA          CLEAR     48  16  27 N7        30.07F
PERRYTON       CLEAR     37  21  51 N7        30.04S WCI  32
$$

SOUTHERN PANHANDLE/SOUTH PLAINS/ROLLING PLAINS

CITY           SKY/WX    TMP DP  RH WIND       PRES   REMARKS
LUBBOCK        CLEAR     45  23  42 NW6       30.10R
SNYDER         CLEAR     52  24  34 NW8       30.07R
CHILDRESS      CLEAR     47  30  51 NW8       30.04R
SEMINOLE       CLEAR     47  25  42 CALM      30.14R
$$

PERMIAN BASIN

CITY           SKY/WX    TMP DP  RH WIND       PRES   REMARKS
MIDLAND        CLEAR     49  31  49 W6        30.11S
ODESSA           N/A     50  26  39 NW5       30.12F
WINK           CLEAR     49  24  37 W8        30.12R
$$

FAR WEST/SOUTHWEST MOUNTAINS/TRANS PECOS

CITY           SKY/WX    TMP DP  RH WIND       PRES   REMARKS
ALPINE         CLEAR     51  26  37 W8        30.28S
DRYDEN           N/A     59  30  33 W9        30.11R
EL PASO        CLEAR     55  27  34 CALM      30.24R
FORT STOCKTON  CLEAR     53  24  32 SW12      30.16R
GUADALUPE PASS CLEAR     49  25  39 SW13      30.26R
MARFA          CLEAR     41  25  53 NW6       30.27S WCI  37
PECOS          CLEAR     50  25  37 W10       30.15S
$$

DALLAS/FORT WORTH METROPLEX

CITY           SKY/WX    TMP DP  RH WIND       PRES   REMARKS
DFW AIRPORT    CLEAR     58  55  90 SW9       29.91R
FTW MEACHAM    CLEAR     57  52  83 S7        29.93S
DAL-EXECUTIVE  CLEAR     58  56  93 SW6       29.92S
GRAND PRAIRIE  CLEAR     57  57 100 CALM      29.95R
ADDISON        CLEAR     58  55  91 CALM      29.94S
MESQUITE         N/A     53  53  98 CALM      29.93S
LANCASTER      CLEAR     55  53  96 SW5       29.94S
$$

NORTH CENTRAL TEXAS

CITY           SKY/WX    TMP DP  RH WIND       PRES   REMARKS
SHRMAN/DENISON CLEAR     53  52  99 S7        29.93S FOG
GAINESVILLE    CLEAR     54  51  90 S6        29.94S
BRIDGEPORT     CLEAR     51  51  98 CALM      29.94F
DENTON         CLEAR     53  52  96 S6        29.92F
WAXAHACHIE     CLEAR     54  54 100 CALM      29.94F FOG
GRANBURY       CLEAR     55  53  94 CALM      29.95S
$$

WESTERN NORTH TEXAS

CITY           SKY/WX    TMP DP  RH WIND       PRES   REMARKS
WICHITA FALLS  CLEAR     56  43  61 W12       29.93S
VERNON         CLEAR     54  33  45 NW9       29.98R
BRECKENRIDGE   CLEAR     55  41  59 CALM      29.96S
COMANCHE       CLEAR     57  40  51 NW7       29.96R
$$

CENTRAL AND SOUTH CENTRAL TEXAS

CITY           SKY/WX    TMP DP  RH WIND       PRES   REMARKS
AUSTIN/BERGSTM LGT RAIN  61  58  90 E7        29.98R
WACO           CLEAR     57  56  96 SE9       29.93S
HILLSBORO      CLEAR     56  55  97 E6        29.94S
TEMPLE         CLEAR     56  56 100 S10       29.94S
KILLEEN-GRAY   PTCLDY    56  55  97 S8        29.93S
FORT HOOD      MOCLDY    57  56  97 S7        29.92R
GEORGETOWN     PTCLDY    59  55  88 S5        29.94S
LAGO VISTA     FAIR      58  57  96 CALM      29.95F
SAN MARCOS     PTCLDY    55  54  94 S8        29.96S
NEW BRAUNFELS  CLEAR     54  50  86 SE8       29.94S
RANDOLPH AFB   CLEAR     61  46  56 W6        29.96S
SAN ANTONIO    PTCLDY    60  44  55 W9        29.97S
STINSON        CLEAR     59  46  62 W7        29.95S
PLEASANTON     NOT AVBL
LA GRANGE      MOCLDY    61  60  97 S10       29.95S
GIDDINGS       CLEAR     57  56  97 S6        29.97S
$$

EAST TEXAS

CITY           SKY/WX    TMP DP  RH WIND       PRES   REMARKS
PARIS          MOCLDY    52  48  87 S3        29.92R VSB 1/2
CLARKSVILLE    NOT AVBL
TYLER          FOG       54  54 100 SE6       29.93S VSB 1/4
LONGVIEW       CLOUDY    58  58 100 S5        29.95R
PALESTINE      NOT AVBL
NACOGDOCHES    CLOUDY    55  54  94 CALM      29.94F
$$

TEXAS HILL COUNTRY AND EDWARDS PLATEAU

CITY           SKY/WX    TMP DP  RH WIND       PRES   REMARKS
LLANO          CLEAR     54  46  76 CALM      29.99R
HORSESHOE BAY    N/A     54  47  76 W3        29.95R
KERRVILLE      CLEAR     54  44  71 N6        30.01R
FREDERICKSBRG  CLEAR     56  39  54 W5        30.00R
ROCKSPRINGS    CLEAR     54  37  54 NW8       30.09R
HONDO          CLEAR     60  44  55 W14       29.99S
UVALDE         CLEAR     57  42  57 CALM      30.03S
DEL RIO        CLEAR     58  40  51 N6        30.06R
$$

SOUTHEAST TEXAS

CITY           SKY/WX    TMP DP  RH WIND       PRES   REMARKS
COLLEGE STN    CLEAR     58  57  97 MISG      29.96F
CALDWELL       NOT AVBL
CROCKETT       CLEAR     54  54 100 CALM      29.99S FOG
BRENHAM        PTCLDY    59  59  99 S3        29.97S
HUNTSVILLE     CLOUDY    60  58  92 S10       29.97F
CONROE         MOCLDY    59  58  96 S7        29.99S FOG
HOUSTON BUSH   PTCLDY    59  58  96 S5        30.00S FOG
HOUSTON HOBBY  PTCLDY    58  57  97 SE5       29.99S FOG
PERLAND        PTCLDY    61  58  90 S5        30.01F FOG
WHARTON        CLEAR     59  58  97 SE7       30.01S FOG
$$

THE UPPER TEXAS COAST

CITY           SKY/WX    TMP DP  RH WIND       PRES   REMARKS
ORANGE         LGT RAIN  60  60  98 CALM      30.05R
PORT ARTHUR    CLOUDY    60  58  92 S5        30.03R
GALVESTON      CLEAR     62  60  93 SW5       30.02S
ANGLETON       PTCLDY    57  56  96 S5        30.00F FOG
BAY CITY         N/A     57  57 100 SE3       30.01S FOG
$$

TEXAS COASTAL BEND, RIO GRANDE PLAINS DEEP SOUTH TEXAS

CITY           SKY/WX    TMP DP  RH WIND       PRES   REMARKS
VICTORIA       CLEAR     60  58  92 S8        30.00S
BEEVILLE       FAIR      56  56 100 S7        30.01S FOG
ROCKPORT       CLEAR     63  60  90 S5        30.01S
PORT ARANSAS   CLEAR     65  62  91 S7        30.01F
PORT LAVACA    CLEAR     58  58 100 CALM      30.00F
CORPUS CHRISTI CLEAR     60  60 100 S8        30.02S
KINGSVILLE NAS CLEAR     60  60 100 S8        30.03S
COTULLA        CLEAR     61  43  51 W6        30.01S
LAREDO         CLEAR     63  46  54 W5        30.06S
BROWNSVILLE    CLEAR     60  60 100 CALM      30.05R FOG
PORT ISABEL    CLEAR     61  60  97 CALM      30.04R
HEBBRONVILLE   CLEAR     60  47  62 CALM      30.07S
MCALLEN        PTCLDY    62  59  90 CALM      30.06R
WESLACO        CLEAR     61  59  92 S3        30.04S
FALFURRIAS     PTCLDY    60  58  92 S6        30.04S
EDINBURG       PTCLDY    62  58  88 CALM      30.06R
$$




USA.gov is the U.S. government's official web portal to all federal, state and local government web resources and services.